Sand Point, AK

7:46 AM AKST on January 23, 2018 (GMT -0900)
Sand Point

Weather History for PASD - October, 2012

Change the Weather History Date:

Tuesday, October 23, 2012

  Actual Average Record
Temperature  
Mean Temperature 40 °F -  
Max Temperature 44 °F 41 °F 52 °F (1989)
Min Temperature 35 °F 36 °F 24 °F (1985)
Degree Days  
Heating Degree Days 26    
Moisture  
Dew Point 36 °F    
Average Humidity 86    
Maximum Humidity 100    
Minimum Humidity 70    
Precipitation  
Precipitation 0.00 in - - ()
Sea Level Pressure  
Sea Level Pressure 30.22 in    
Wind  
Wind Speed 2 mph (NE)    
Max Wind Speed 9 mph    
Max Gust Speed -    
Visibility 10 miles    
Events      
Averages and records for this station are not official NWS values.
T = Trace of Precipitation, MM = Missing Value Source: NWS Daily Summary

Daily Weather History Graph

Daily Weather History Graph

Search for Another Location

Airport or City:

Trip Planner

Search our weather history database for the weather conditions in past years. The results will help you decide how hot, cold, wet, or windy it might be!

Date:

Astronomy

Oct. 23, 2012 Rise Set
Actual Time 9:29 AM AKDT 7:21 PM AKDT
Civil Twilight 8:52 AM AKDT 7:59 PM AKDT
Nautical Twilight 8:09 AM AKDT 8:42 PM AKDT
Astronomical Twilight 7:27 AM AKDT 9:24 PM AKDT
Moon 5:01 PM AKDT 2:37 AM AKDT
Length of Visible Light 11h 07m
Length of Day
9h 51m
Waxing Gibbous, 68% of the Moon is Illuminated
Oct 23
Waxing Gibbous
Oct 29
Full
Nov 6
Last Quarter
Nov 13
New
Nov 20
First Quarter

Hourly Weather History & Observations

Time (AKDT) Temp. Windchill Dew Point Humidity Pressure Visibility Wind Dir Wind Speed Gust Speed Precip Events Conditions
12:16 AM 37.4 °F - 33.8 °F 87% 30.31 in 10.0 mi Calm Calm - N/A   Clear
12:36 AM 39.2 °F - 35.6 °F 87% 30.31 in 10.0 mi Calm Calm - N/A   Clear
12:56 AM 41.0 °F 38.0 °F 35.6 °F 81% 30.31 in 10.0 mi ENE 4.6 mph - N/A   Mostly Cloudy
1:16 AM 41.0 °F 39.0 °F 35.6 °F 81% 30.31 in 10.0 mi East 3.5 mph - N/A   Mostly Cloudy
1:36 AM 41.0 °F - 37.4 °F 87% 30.31 in 10.0 mi Calm Calm - N/A   Mostly Cloudy
1:56 AM 41.0 °F 39.0 °F 37.4 °F 87% 30.30 in 10.0 mi NE 3.5 mph - N/A   Mostly Cloudy
2:16 AM 41.0 °F - 37.4 °F 87% 30.30 in 10.0 mi Calm Calm - N/A   Overcast
2:36 AM 39.2 °F 37.0 °F 35.6 °F 87% 30.29 in 10.0 mi ENE 3.5 mph - N/A   Mostly Cloudy
2:56 AM 39.2 °F 37.0 °F 35.6 °F 87% 30.29 in 10.0 mi ENE 3.5 mph - N/A   Partly Cloudy
3:16 AM 39.2 °F 35.9 °F 35.6 °F 87% 30.28 in 10.0 mi ENE 4.6 mph - N/A   Clear
3:36 AM 39.2 °F 35.9 °F 35.6 °F 87% 30.28 in 10.0 mi ENE 4.6 mph - N/A   Clear
3:56 AM 37.4 °F 32.8 °F 35.6 °F 93% 30.28 in 10.0 mi East 5.8 mph - N/A   Clear
4:16 AM 39.2 °F 35.9 °F 35.6 °F 87% 30.27 in 10.0 mi East 4.6 mph - N/A   Clear
4:36 AM 39.2 °F - 35.6 °F 87% 30.27 in 10.0 mi Calm Calm - N/A   Clear
4:56 AM 37.4 °F - 35.6 °F 93% 30.27 in 10.0 mi Calm Calm - N/A   Clear
5:16 AM 37.4 °F - 37.4 °F 100% 30.27 in 10.0 mi Calm Calm - N/A   Clear
5:36 AM 37.4 °F - 37.4 °F 100% 30.26 in 10.0 mi Calm Calm - N/A   Clear
5:56 AM 35.6 °F - 35.6 °F 100% 30.26 in 10.0 mi Calm Calm - N/A   Clear
6:16 AM 35.6 °F - 35.6 °F 100% 30.26 in 10.0 mi Calm Calm - N/A   Clear
6:36 AM 35.6 °F - 35.6 °F 100% 30.25 in 10.0 mi Calm Calm - N/A   Clear
6:56 AM 35.6 °F - 33.8 °F 93% 30.25 in 10.0 mi Calm Calm - N/A   Scattered Clouds
7:16 AM 35.6 °F - 35.6 °F 100% 30.25 in 10.0 mi Calm Calm - N/A   Scattered Clouds
7:36 AM 37.4 °F 34.9 °F 37.4 °F 100% 30.24 in 10.0 mi NE 3.5 mph - N/A   Scattered Clouds
7:56 AM 37.4 °F 32.8 °F 37.4 °F 100% 30.24 in 10.0 mi ENE 5.8 mph - N/A   Scattered Clouds
8:16 AM 37.4 °F 32.8 °F 37.4 °F 100% 30.23 in 10.0 mi ENE 5.8 mph - N/A   Scattered Clouds
8:36 AM 37.4 °F 32.8 °F 35.6 °F 93% 30.23 in 10.0 mi ENE 5.8 mph - N/A   Scattered Clouds
8:56 AM 37.4 °F 32.8 °F 37.4 °F 100% 30.23 in 10.0 mi ENE 5.8 mph - N/A   Scattered Clouds
9:16 AM 37.4 °F 33.8 °F 35.6 °F 93% 30.22 in 10.0 mi East 4.6 mph - N/A   Scattered Clouds
9:36 AM 37.4 °F 33.8 °F 35.6 °F 93% 30.22 in 10.0 mi East 4.6 mph - N/A   Scattered Clouds
9:56 AM 37.4 °F 32.8 °F 35.6 °F 93% 30.23 in 10.0 mi East 5.8 mph - N/A   Mostly Cloudy
10:16 AM 37.4 °F 34.9 °F 35.6 °F 93% 30.23 in 10.0 mi ENE 3.5 mph - N/A   Mostly Cloudy
10:36 AM 39.2 °F - 35.6 °F 87% 30.22 in 10.0 mi Calm Calm - N/A   Mostly Cloudy
10:56 AM 39.2 °F - 37.4 °F 93% 30.22 in 10.0 mi Calm Calm - N/A   Mostly Cloudy
11:16 AM 39.2 °F 37.0 °F 37.4 °F 93% 30.21 in 10.0 mi NNE 3.5 mph - N/A   Mostly Cloudy
11:36 AM 39.2 °F - 37.4 °F 93% 30.22 in 10.0 mi Calm Calm - N/A   Mostly Cloudy
11:56 AM 41.0 °F - 37.4 °F 87% 30.22 in 10.0 mi Calm Calm - N/A   Mostly Cloudy
12:16 PM 42.8 °F 41.1 °F 37.4 °F 81% 30.21 in 10.0 mi North 3.5 mph - N/A   Mostly Cloudy
12:36 PM 42.8 °F - 37.4 °F 81% 30.21 in 10.0 mi Calm Calm - N/A   Mostly Cloudy
12:56 PM 42.8 °F - 37.4 °F 81% 30.21 in 10.0 mi Calm Calm - N/A   Mostly Cloudy
1:16 PM 42.8 °F - 37.4 °F 81% 30.20 in 10.0 mi Calm Calm - N/A   Mostly Cloudy
1:36 PM 42.8 °F 41.1 °F 37.4 °F 81% 30.20 in 10.0 mi North 3.5 mph - N/A   Mostly Cloudy
1:56 PM 42.8 °F - 35.6 °F 76% 30.19 in 10.0 mi Calm Calm - N/A   Mostly Cloudy
2:16 PM 42.8 °F - 35.6 °F 76% 30.19 in 10.0 mi Calm Calm - N/A   Mostly Cloudy
2:36 PM 44.6 °F 43.1 °F 37.4 °F 76% 30.19 in 10.0 mi NW 3.5 mph - N/A   Mostly Cloudy
2:56 PM 42.8 °F 41.1 °F 37.4 °F 81% 30.19 in 10.0 mi North 3.5 mph - N/A   Mostly Cloudy
3:16 PM 42.8 °F 40.1 °F 37.4 °F 81% 30.18 in 10.0 mi North 4.6 mph - N/A   Mostly Cloudy
3:36 PM 42.8 °F - 37.4 °F 81% 30.18 in 10.0 mi Calm Calm - N/A   Mostly Cloudy
3:56 PM 42.8 °F 41.1 °F 37.4 °F 81% 30.17 in 10.0 mi NNW 3.5 mph - N/A   Mostly Cloudy
4:16 PM 42.8 °F 40.1 °F 37.4 °F 81% 30.16 in 10.0 mi NNW 4.6 mph - N/A   Mostly Cloudy
4:36 PM 42.8 °F 39.3 °F 37.4 °F 81% 30.15 in 10.0 mi North 5.8 mph - N/A   Mostly Cloudy
4:56 PM 42.8 °F 38.0 °F 37.4 °F 81% 30.15 in 10.0 mi North 8.1 mph - N/A   Partly Cloudy
5:16 PM 42.8 °F 38.6 °F 35.6 °F 76% 30.15 in 10.0 mi NNE 6.9 mph - N/A   Partly Cloudy
5:36 PM 42.8 °F 39.3 °F 35.6 °F 76% 30.14 in 10.0 mi North 5.8 mph - N/A   Partly Cloudy
5:56 PM 42.8 °F 39.3 °F 35.6 °F 76% 30.14 in 10.0 mi North 5.8 mph - N/A   Partly Cloudy
6:16 PM 42.8 °F 38.6 °F 33.8 °F 70% 30.15 in 10.0 mi North 6.9 mph - N/A   Partly Cloudy
6:36 PM 41.0 °F 35.8 °F 33.8 °F 76% 30.14 in 10.0 mi North 8.1 mph - N/A   Partly Cloudy
6:56 PM 41.0 °F 35.2 °F 33.8 °F 76% 30.15 in 10.0 mi North 9.2 mph - N/A   Scattered Clouds
7:16 PM 42.8 °F 41.1 °F 35.6 °F 76% 30.15 in 10.0 mi NE 3.5 mph - N/A   Scattered Clouds
7:36 PM 41.0 °F - 35.6 °F 81% 30.15 in 10.0 mi Calm Calm - N/A   Scattered Clouds
7:56 PM 41.0 °F - 35.6 °F 81% 30.16 in 10.0 mi Calm Calm - N/A   Scattered Clouds
8:16 PM 41.0 °F - 35.6 °F 81% 30.16 in 10.0 mi Calm Calm - N/A   Overcast
8:36 PM 39.2 °F - 35.6 °F 87% 30.16 in 10.0 mi Calm Calm - N/A   Overcast
8:56 PM 39.2 °F - 35.6 °F 87% 30.16 in 10.0 mi Calm Calm - N/A   Overcast
9:16 PM 39.2 °F - 33.8 °F 81% 30.16 in 10.0 mi Calm Calm - N/A   Overcast
9:36 PM 39.2 °F - 33.8 °F 81% 30.17 in 10.0 mi Calm Calm - N/A   Overcast
9:56 PM 39.2 °F - 33.8 °F 81% 30.18 in 10.0 mi Calm Calm - N/A   Overcast
10:16 PM 39.2 °F 37.0 °F 33.8 °F 81% 30.18 in 10.0 mi East 3.5 mph - N/A   Overcast
10:36 PM 39.2 °F - 32.0 °F 75% 30.18 in 10.0 mi Calm Calm - N/A   Overcast
10:56 PM 39.2 °F - 33.8 °F 81% 30.18 in 10.0 mi Calm Calm - N/A   Overcast
11:16 PM 39.2 °F - 33.8 °F 81% 30.19 in 10.0 mi Calm Calm - N/A   Overcast
11:36 PM 39.2 °F - 33.8 °F 81% 30.19 in 10.0 mi Calm Calm - N/A   Overcast
11:56 PM 39.2 °F 35.0 °F 32.0 °F 75% 30.19 in 10.0 mi ENE 5.8 mph - N/A   Overcast